Showing default

DUPLEX, 66906

Orbit data source: Space-Track

DUPLEX, 66906 is an American payload satellite in LEO that was delivered to the ISS. Payload-class satellites include a variety of spacecraft equipped with specific instruments for various scientific and technological missions. These include communications satellites like Starlink; space stations such as the ISS; scientific satellites like the Hubble; Earth observation satellites from companies like Planet Labs, Umbra, and HawkEye 360; GPS; miniature CubeSats for education and research; and military/defense satellites.

Loading next visibility...
Identifier
66906, 1998-067XS
Orbit
LEO
Country
Flag of USUS
Related business
Manufacturer
CUA
Mission
Operational Amateur Technology
Bus & Motor
CUBESAT 6U, Unknown motor
Mass
~10 kg wet, ~10 kg dry
Launch date (UTC)
1998-11-20 (28 years ago)
Launch vehicle
FALCON 9
Launch site
Tyuratam Missile And Space Complex (TTMTR)
Object type
Payload
Rocket body
Debris
Shape & HBR
Box, 0.2 m
Radar Cross Section
0.015 m², Medium (>0.1 m² and < 1m²)

Expand to show TLE details & history
Last TLE update: 11 hours ago

TLE from 11 hours ago
0 DUPLEX
1 66906U 98067XS  26235.92778701  .00041242  00000-0  37302-3 0  9997
2 66906  51.6267 306.1176 0003926  50.8863 309.2482 15.67656970 41263
Epoch: 2026-08-23T22:16Z
TLE epoch observation values (Epoch: 2026-08-23T22:16:00.797Z)
Latitude
-0.00002°
Longitude
-0.10255°
Altitude
364.679 km
Speed
7.693 km/s
True Right ascension
20h 24m 28s
True Declination
0° 00' 00"
Sunlit
Object was in full shadow at epoch
Visualization orbit readout
Latitude
Unknown
Longitude
Unknown
Altitude
Unknown
Speed
Unknown
Apparent Right ascension
Unknown
Apparent Declination
Unknown
Sunlit
N/A
Visualization observer readout
Local Sidereal Time
00:45:49
Azimuth
Unknown
Elevation
Unknown
Doppler factor
Unknown
Orbital elements
Apogee altitude
368.77 km
Perigee altitude
363.474 km
Semi-major axis
6,744.259 km
Eccentricity
0.00039
Inclination
51.6267°
RAAN
306.1176°
Arg. of periapsis
50.8863°
True anomaly
309.21335°
Mean anomaly
309.2482°
Eccentric anomaly
309.23078°
Mean motion
3.9187 °/min
Orbital period
91.87 mins
BSTAR
0.00037302
Loading maneuver chart data...
Computing Atmospheric mass density...

Documentation

Showing up to 5 results
|